Tracking 19176 objects as of 26-May-2018
HD Live streaming from Space Station
objects crossing your sky now

NOAA 16 DEB

Track NOAA 16 DEB now!
10-day predictions


NORAD ID: 41134
Int'l Code: 2000-055BR
Perigee: 851.3 km
Apogee: 895.9 km
Inclination: 98.9 °
Period: 102.3 minutes
Semi major axis: 7244 km
RCS: Unknown
Launch date: September 21, 2000
Source: United States (US)
Launch site: AIR FORCE WESTERN TEST RANGE (AFWTR)

Note: This is SATELLITE DEBRIS
aabbcc
Your satellite tracking list
Your tracking list is empty




NASA's NSSDC Master Catalog

Two Line Element Set (TLE):
1 41134U 00055BR  18146.13601725  .00000462  00000-0  29670-3 0  9997
2 41134  98.8727 214.9924 0030780 200.5083 159.4852 14.07936675126532
Source of the keplerian elements: AFSPC